This demonstration page uses our WeatherBlox Daily Observations layout. Learn more.

Left ArrowRight Arrow

34.16533, -84.80231

Hourly Observations for July 15, 2020

Temp ( °F °C ) Dew Point ( °F °C ) Humidity (%) Winds ( mph kmh ) Pressure ( in mb ) Visibility ( mi km ) Precip ( " mm )
12:53 am 00:53 Clear 72 22.2 69 20.6 91 91 S 3 6 30.01 1016 10 16 0.00 0.00
1:53 am 01:53 Clear 72 22.2 68 20 87 87 Calm 29.99 1016 10 16 0.00 0.00
2:53 am 02:53 Partly Cloudy 70 21.1 67 19.4 90 90 Calm 29.98 1015 10 16 0.00 0.00
3:53 am 03:53 Partly Cloudy 71 21.7 68 20 90 90 Calm 29.98 1015 10 16 0.00 0.00
4:53 am 04:53 Mostly Clear 71 21.7 68 20 90 90 Calm 29.99 1016 10 16 0.00 0.00
5:53 am 05:53 Mostly Cloudy 72 22.2 68 20 87 87 Calm 30.01 1016 10 16 0.00 0.00
6:53 am 06:53 Partly Cloudy 71 21.7 68 20 90 90 Calm 30.02 1017 9 14 0.00 0.00
7:53 am 07:53 Mostly Sunny 75 23.9 70 21.1 84 84 Calm 30.04 1017 10 16 0.00 0.00
8:53 am 08:53 Sunny 80 26.7 69 20.6 69 69 Calm 30.06 1018 10 16 0.00 0.00
9:53 am 09:53 Sunny 84 28.9 71 21.7 65 65 Calm 30.06 1018 10 16 0.00 0.00
10:53 am 10:53 Sunny 88 31.1 70 21.1 55 55 VRB 3 6 30.06 1018 10 16 0.00 0.00
11:53 am 11:53 Sunny 90 32.2 69 20.6 50 50 Calm 30.06 1018 10 16 0.00 0.00
12:53 pm 12:53 Partly Cloudy 92 33.3 69 20.6 47 47 Calm 30.05 1018 10 16 0.00 0.00
1:53 pm 13:53 Mostly Cloudy 93 33.9 70 21.1 47 47 S 6 9 30.03 1017 10 16 0.00 0.00
2:53 pm 14:53 Mostly Sunny 94 34.4 70 21.1 46 46 VRB 3 6 30.01 1016 10 16 0.00 0.00
3:53 pm 15:53 Partly Cloudy 93 33.9 69 20.6 46 46 VRB 6 9 30.01 1016 10 16 0.00 0.00
4:53 pm 16:53 Sunny 88 31.1 72 22.2 59 59 ESE 6 9 29.99 1016 10 16 0.00 0.00
5:53 pm 17:53 Sunny 90 32.2 71 21.7 54 54 ESE 7 11 29.98 1015 10 16 0.00 0.00
6:53 pm 18:53 Sunny 88 31.1 72 22.2 59 59 E 8 13 29.99 1016 10 16 0.00 0.00
7:53 pm 19:53 Partly Cloudy 88 31.1 72 22.2 59 59 SE 6 9 29.99 1016 10 16 0.00 0.00
8:53 pm 20:53 Mostly Cloudy 85 29.4 73 22.8 68 68 SSE 6 9 30.01 1016 10 16 0.00 0.00
9:16 pm 21:16 Mostly Clear with Nearby Thunderstorms 84 28.9 69 20.6 61 61 SE 6 9 30.02 1017 10 16 0.00 0.00
9:28 pm 21:28 Mostly Cloudy with Thunderstorms 84 28.9 70 21.1 63 63 SSE 13 20 30.04 1017 10 16 0.00 0.00
9:44 pm 21:44 Partly Cloudy 83 28.3 69 20.6 63 63 VRB 3 6 30.01 1016 10 16 0.00 0.00
9:53 pm 21:53 Mostly Clear 82 27.8 69 20.6 65 65 S 6 9 30.00 1016 10 16 0.00 0.00
10:53 pm 22:53 Clear 79 26.1 70 21.1 74 74 Calm 30.05 1018 10 16 0.00 0.00
11:53 pm 23:53 Partly Cloudy 78 25.6 69 20.6 74 74 Calm 30.06 1018 10 16 0.00 0.00

Powered by AerisWeather